Location: South Tamworth Observatory
(43.8246°N, 71.3026°W)
Time: 17:17:33
(UTC-05:00)

Amateur Radio Satellites - All Passes

Search period start: 02 December 2016 16:47
Search period end: 03 December 2016 16:47
Location: South Tamworth Observatory, 43.8246°N, 71.3026°W

Satellite Date Start Highest point End Downlink Frequencies (MHz)
Time Altitude Azimuth
CUTE-I 02 Dec 16:51:13 16:56:29 60° 71° (ENE) 17:01:46 437.470
ISS 02 Dec 17:01:03 17:03:56 29° 138° (SE) 17:06:51 145.825
GOMX 1 02 Dec 17:02:01 17:06:27 68° 259° (WSW) 17:11:15 467.674
BRITE-PL 02 Dec 17:06:46 17:10:14 24° 267° (W) 17:13:52 437.365/2234.400
AIST 2 02 Dec 17:13:11 17:17:24 65° 53° (NE) 17:21:36 435.215
RS-15 02 Dec 17:13:46 17:26:03 72° 243° (WSW) 17:37:55 29.354- 29.394
Cubesat XI-IV 02 Dec 17:15:41 17:21:06 86° 259° (W) 17:26:31 437.490
KKS-1 02 Dec 17:24:33 17:27:37 18° 297° (WNW) 17:30:40 437.445
LilacSat-2 02 Dec 17:24:38 17:28:26 57° 260° (W) 17:32:15 437.200
CUTE 1.7 + AOD 2 02 Dec 17:26:56 17:29:14 14° 63° (ENE) 17:31:30 437.475
NOAA 15 02 Dec 17:27:34 17:32:44 60° 258° (WSW) 17:37:56 137.62
DOVE 4 02 Dec 17:32:46 17:37:27 79° 258° (WSW) 17:42:29 437.250
HORYU 2 02 Dec 17:40:01 17:42:14 13° 270° (W) 17:44:26 437.375
STARS 02 Dec 17:41:27 17:44:59 24° 295° (WNW) 17:48:29 437.465
CANX-2 02 Dec 17:42:48 17:46:11 24° 67° (ENE) 17:49:33 2200.000
CINEMA 3 02 Dec 17:43:42 17:48:12 38° 69° (ENE) 17:52:50 145.822/145.860
HO-68 02 Dec 17:45:01 17:51:39 43° 64° (ENE) 17:58:20 435.675
CUBESAT XI-V 02 Dec 17:52:47 17:56:39 26° 293° (WNW) 18:00:30 437.345
NOAA 18 02 Dec 18:06:19 18:11:37 47° 260° (W) 18:17:00 137.9125
Cosmos 2491 02 Dec 18:07:36 18:16:22 80° 81° (E) 18:25:05 435.465 / 435.565
O/OREOS (USA 219) 02 Dec 18:09:20 18:12:00 15° 310° (NW) 18:14:40 437.305
AAUSAT CUBESAT 2 02 Dec 18:10:03 18:12:21 15° 63° (ENE) 18:14:38 437.432
STRAND 1 02 Dec 18:15:01 18:19:02 23° 93° (E) 18:23:00 437.568
SEEDS 02 Dec 18:16:20 18:20:01 31° 70° (ENE) 18:23:44 437.485
Cosmos 2504 02 Dec 18:28:12 18:34:03 22° 77° (ENE) 18:40:07 435.465 / 435.565
CUBEBUG 2 02 Dec 18:29:14 18:33:21 30° 68° (ENE) 18:37:28 437.445
CUTE-I 02 Dec 18:33:10 18:36:55 19° 269° (W) 18:40:42 437.470
COMPASS 1 02 Dec 18:34:29 18:38:10 33° 70° (ENE) 18:41:53 437.405
ZACube-1 02 Dec 18:36:05 18:38:38 15° 62° (ENE) 18:41:10 437.345
ISS 02 Dec 18:37:09 18:40:21 44° 336° (NNW) 18:43:33 145.825
YUBILEINY 02 Dec 18:37:54 18:46:10 51° 89° (E) 18:54:31 435.215
FUNcube-1 02 Dec 18:45:44 18:48:39 17° 63° (ENE) 18:51:33 145.935
AIST 2 02 Dec 18:53:10 18:55:22 14° 251° (WSW) 18:57:33 435.215
Cubesat XI-IV 02 Dec 19:00:17 19:01:55 11° 273° (W) 19:03:34 437.490
CUTE 1.7 + AOD 2 02 Dec 19:00:26 19:04:36 57° 260° (W) 19:08:46 437.475
PCSat 02 Dec 19:08:09 19:11:25 16° 36° (NE) 19:14:42 145.827
CANX-2 02 Dec 19:18:05 19:21:53 32° 264° (W) 19:25:41 2200.000
UWE-3 02 Dec 19:19:37 19:24:14 61° 74° (ENE) 19:28:49 435.000/436.395/437.385
Oscar 11 02 Dec 19:20:26 19:24:19 33° 69° (ENE) 19:28:13 145.826/435.025
CINEMA 3 02 Dec 19:21:19 19:25:24 26° 267° (W) 19:29:36 145.822/145.860
RS-15 02 Dec 19:29:05 19:36:09 18° 265° (W) 19:43:09 29.354- 29.394
HO-68 02 Dec 19:32:45 19:39:23 40° 262° (W) 19:46:04 435.675
DELFI C3 02 Dec 19:42:39 19:45:33 20° 66° (ENE) 19:48:27 145.870
AAUSAT CUBESAT 2 02 Dec 19:43:22 19:47:23 53° 260° (W) 19:51:25 437.432
SEEDS 02 Dec 19:52:24 19:55:45 23° 266° (W) 19:59:06 437.485
STRAND 1 02 Dec 19:53:33 19:58:25 46° 290° (WNW) 20:03:15 437.568
SO-50 02 Dec 19:53:59 19:57:48 24° 113° (ESE) 20:01:35 436.795
AIST 1 02 Dec 20:04:05 20:08:23 82° 278° (W) 20:12:44
CUBEBUG 2 02 Dec 20:05:38 20:09:52 32° 264° (W) 20:14:08 437.445
Cosmos 2491 02 Dec 20:05:56 20:12:09 22° 282° (WNW) 20:18:20 435.465 / 435.565
ZACube-1 02 Dec 20:09:51 20:14:25 65° 259° (W) 20:18:56 437.345
CUSAT 1 02 Dec 20:10:07 20:13:19 50° 79° (E) 20:17:23 437.405
COMPASS 1 02 Dec 20:10:35 20:13:47 21° 266° (W) 20:17:00 437.405
ISS 02 Dec 20:14:49 20:17:26 21° 355° (N) 20:20:04 145.825
Cosmos 2504 02 Dec 20:17:59 20:26:15 84° 278° (W) 20:35:06 435.465 / 435.565
FUNcube-1 02 Dec 20:19:59 20:24:28 55° 260° (W) 20:28:54 145.935
YUBILEINY 02 Dec 20:35:18 20:43:12 38° 290° (WNW) 20:51:13 435.215
HUMSAT D 02 Dec 20:37:02 20:41:04 44° 72° (ENE) 20:45:04 437.325/437.525
TIGRISAT 02 Dec 20:47:35 20:49:02 11° 88° (E) 20:50:28 435.000
ANTELSAT 02 Dec 20:47:40 20:49:29 12° 89° (E) 20:51:17 437.575/2403.000
PCSat 02 Dec 20:50:21 20:55:48 72° 57° (ENE) 21:01:13 145.827
ESTCUBE 1 02 Dec 20:50:43 20:51:56 11° 59° (ENE) 20:53:09 437.505/2401.250
PRISM 02 Dec 20:53:03 20:57:11 63° 102° (ESE) 21:01:18 437.425
Oscar 11 02 Dec 20:57:02 21:00:30 23° 266° (W) 21:03:59 145.826/435.025
UWE-3 02 Dec 20:58:24 21:01:03 15° 270° (W) 21:03:42 435.000/436.395/437.385
DELFI C3 02 Dec 21:16:36 21:20:09 33° 263° (W) 21:23:44 145.870
SO-50 02 Dec 21:33:25 21:38:01 47° 310° (NW) 21:42:35 436.795
CUBEBUG 1 02 Dec 21:47:28 21:50:59 24° 66° (ENE) 21:54:32 437.445
VELOX 1 02 Dec 21:48:51 21:51:53 18° 63° (ENE) 21:54:55 145.980
UNISAT 6 02 Dec 21:50:33 21:54:58 58° 100° (E) 21:59:15 437.425
ISS 02 Dec 21:51:46 21:54:41 27° 16° (NNE) 21:57:35 145.825
DANDE 02 Dec 22:00:48 22:02:59 22° 264° (W) 22:05:25 436.750
HUMSAT D 02 Dec 22:14:05 22:16:53 17° 268° (W) 22:19:40 437.325/437.525
DX 1 02 Dec 22:14:58 22:18:00 19° 64° (ENE) 22:21:05 434.975-435.025
Cosmos 2504 02 Dec 22:15:24 22:21:10 20° 302° (WNW) 22:27:08 435.465 / 435.565
50 SAT 02 Dec 22:17:54 22:20:46 24° 69° (ENE) 22:23:37 437.505
POPSAT HIP 1 02 Dec 22:21:31 22:23:41 14° 90° (E) 22:25:50 437.405
TIGRISAT 02 Dec 22:21:48 22:26:15 70° 286° (WNW) 22:30:34 435.000
ANTELSAT 02 Dec 22:22:15 22:26:41 66° 287° (WNW) 22:30:59 437.575/2403.000
ESTCUBE 1 02 Dec 22:23:33 22:28:01 88° 251° (WSW) 22:32:33 437.505/2401.250
UKube-1 02 Dec 22:29:34 22:32:43 20° 64° (ENE) 22:35:52 .
PRISM 02 Dec 22:29:59 22:31:58 13° 298° (WNW) 22:33:58 437.425
PCSat 02 Dec 22:35:10 22:38:34 17° 255° (WSW) 22:41:58 145.827
AISAT 02 Dec 22:46:18 22:50:42 73° 73° (ENE) 22:55:08 437.250
SPROUT 02 Dec 22:49:06 22:53:14 47° 72° (ENE) 22:57:23 437.525
JAS-2 02 Dec 22:50:51 22:55:46 42° 99° (E) 23:00:47 435.910
GONETS M04 02 Dec 23:17:16 23:23:27 22° 78° (ENE) 23:29:36
NANOSAT C BR1 02 Dec 23:17:24 23:21:34 52° 100° (E) 23:25:40 145.865
SO-50 02 Dec 23:18:11 23:19:38 11° 332° (NNW) 23:21:05 436.795
QB50P2 02 Dec 23:19:27 23:23:41 64° 101° (E) 23:27:53 145.880/145.840
BUGSAT 1 02 Dec 23:19:27 23:22:33 20° 93° (E) 23:25:37 437.445
POLYITAN 1 02 Dec 23:20:06 23:24:20 61° 101° (ESE) 23:28:30 437.675
CUBEBUG 1 02 Dec 23:23:11 23:27:06 33° 263° (W) 23:31:06 437.445
VELOX 1 02 Dec 23:23:44 23:27:58 47° 260° (W) 23:32:17 145.980
ISS 02 Dec 23:28:07 23:31:26 73° 214° (SSW) 23:34:44 145.825
UNISAT 6 02 Dec 23:28:34 23:31:11 15° 298° (WNW) 23:33:45 437.425
Cosmos 2499 02 Dec 23:30:34 23:37:34 30° 81° (E) 23:44:50 435.465 / 435.565
QB50P1 02 Dec 23:34:23 23:38:41 87° 106° (ESE) 23:42:54 145.935-145.965
DUCHIFAT 1 02 Dec 23:41:34 23:45:50 89° 127° (SE) 23:50:01 145.980
DX 1 02 Dec 23:49:43 23:53:52 45° 261° (W) 23:58:05 434.975-435.025
50 SAT 02 Dec 23:51:16 23:54:01 21° 265° (W) 23:56:46 437.505
POPSAT HIP 1 02 Dec 23:55:38 23:59:49 56° 287° (WNW) 00:03:57 437.405
UKube-1 03 Dec 00:04:24 00:08:28 41° 261° (W) 00:12:35 .
SWISSCUBE 03 Dec 00:08:17 00:11:13 16° 61° (ENE) 00:14:10 437.505
BEESAT 03 Dec 00:12:45 00:15:40 16° 61° (ENE) 00:18:36 436.000
Oscar 19 03 Dec 00:20:19 00:24:23 23° 93° (E) 00:28:26 437.125/150
TISAT 1 03 Dec 00:24:14 00:28:28 88° 68° (ENE) 00:32:45 437.305
AISAT 03 Dec 00:26:20 00:27:41 11° 271° (W) 00:29:01 437.250
SPROUT 03 Dec 00:26:38 00:29:24 17° 268° (W) 00:32:11 437.525
AUBIESAT-1 03 Dec 00:33:29 00:37:14 36° 64° (ENE) 00:41:15 437.475
JAS-2 03 Dec 00:36:32 00:40:42 25° 296° (WNW) 00:44:53 435.910
ITUPSAT 1 03 Dec 00:36:38 00:40:36 26° 65° (ENE) 00:44:33 437.325
M-CUBED/EXP-1 PRIME 03 Dec 00:42:16 00:46:11 54° 67° (ENE) 00:50:27 437.505
BUGSAT 1 03 Dec 00:54:08 00:58:04 37° 290° (WNW) 01:01:54 437.445
NANOSAT C BR1 03 Dec 00:54:18 00:56:51 16° 297° (WNW) 00:59:24 145.865
QB50P2 03 Dec 00:56:53 00:58:57 13° 299° (WNW) 01:01:02 145.880/145.840
POLYITAN 1 03 Dec 00:57:24 00:59:38 14° 298° (WNW) 01:01:49 437.675
O/OREOS (USA 219) 03 Dec 00:57:41 01:01:05 21° 54° (NE) 01:04:27 437.305
GONETS M04 03 Dec 01:10:28 01:19:13 81° 279° (W) 01:27:58
QB50P1 03 Dec 01:13:15 01:13:45 10° 301° (WNW) 01:14:14 145.935-145.965
Cosmos 2499 03 Dec 01:21:35 01:30:00 65° 282° (WNW) 01:38:52 435.465 / 435.565
Gurwin Techsat 1B 03 Dec 01:25:26 01:30:35 46° 99° (E) 01:35:39 435.225
AO-85 03 Dec 01:37:26 01:41:07 21° 113° (ESE) 01:44:38 145.980
PHONESAT 2.4 03 Dec 01:41:46 01:43:32 16° 158° (SSE) 01:45:19 2401.200-2431.200
SWISSCUBE 03 Dec 01:43:46 01:48:30 64° 258° (WSW) 01:53:16 437.505
BEESAT 03 Dec 01:48:12 01:52:56 64° 258° (WSW) 01:57:43 436.000
MOZHAYETS 4 03 Dec 01:49:54 01:53:59 32° 68° (ENE) 01:58:04
Oscar 19 03 Dec 01:58:57 02:03:55 47° 290° (WNW) 02:08:52 437.125/150
AUBIESAT-1 03 Dec 02:08:36 02:11:45 22° 262° (W) 02:15:07 437.475
ITUPSAT 1 03 Dec 02:13:50 02:18:15 37° 262° (W) 02:22:42 437.325
M-CUBED/EXP-1 PRIME 03 Dec 02:18:51 02:21:05 14° 266° (W) 02:23:24 437.505
ITAMSAT 1 03 Dec 02:19:23 02:24:05 33° 97° (E) 02:28:43 435.822/435.867
O/OREOS (USA 219) 03 Dec 02:36:26 02:40:44 46° 252° (WSW) 02:44:59 437.305
KKS-1 03 Dec 02:46:03 02:50:23 54° 73° (ENE) 02:54:48 437.445
AO-7 03 Dec 02:58:27 03:06:26 46° 100° (E) 03:14:22 29.400- 29.500
STARS 03 Dec 03:02:22 03:06:27 38° 70° (ENE) 03:10:34 437.465
Gurwin Techsat 1B 03 Dec 03:05:56 03:10:15 26° 296° (WNW) 03:14:32 435.225
GONETS M04 03 Dec 03:11:57 03:17:34 18° 302° (WNW) 03:23:12
PHONESAT 2.4 03 Dec 03:15:55 03:18:25 36° 175° (S) 03:20:56 2401.200-2431.200
AO-85 03 Dec 03:16:30 03:21:17 53° 308° (NW) 03:25:44 145.980
CUBESAT XI-V 03 Dec 03:19:37 03:23:52 39° 70° (ENE) 03:28:09 437.345
Cosmos 2499 03 Dec 03:20:35 03:25:10 15° 306° (NW) 03:29:51 435.465 / 435.565
MOZHAYETS 4 03 Dec 03:27:14 03:31:09 27° 265° (W) 03:35:04
BRITE-PL 03 Dec 03:31:56 03:33:57 12° 87° (E) 03:35:59 437.365/2234.400
HORYU 2 03 Dec 03:53:18 03:54:04 10° 89° (E) 03:54:49 437.375
ITAMSAT 1 03 Dec 03:58:54 04:03:29 33° 294° (WNW) 04:08:03 435.822/435.867
SO-50 03 Dec 04:23:19 04:27:27 32° 45° (NE) 04:31:29 436.795
KKS-1 03 Dec 04:24:37 04:27:17 16° 269° (W) 04:30:00 437.445
STARS 03 Dec 04:39:31 04:42:55 22° 266° (W) 04:46:21 437.465
YUBILEINY 03 Dec 04:46:24 04:53:41 28° 65° (ENE) 05:00:56 435.215
PHONESAT 2.4 03 Dec 04:51:01 04:53:27 31° 191° (S) 04:55:52 2401.200-2431.200
AO-7 03 Dec 04:51:21 04:59:09 45° 300° (WNW) 05:06:56 29.400- 29.500
BEESAT 3 03 Dec 04:53:52 04:57:00 23° 114° (ESE) 05:00:10 437.485
CUBESAT XI-V 03 Dec 04:57:48 05:01:23 22° 267° (W) 05:04:58 437.345
LilacSat-2 03 Dec 04:58:00 04:59:54 13° 91° (E) 05:01:48 437.200
AO-85 03 Dec 05:01:11 05:02:39 11° 328° (NNW) 05:04:05 145.980
GOMX 1 03 Dec 05:01:49 05:06:51 37° 96° (E) 05:11:54 467.674
BRITE-PL 03 Dec 05:07:41 05:13:00 86° 104° (ESE) 05:18:37 437.365/2234.400
CUTE-I 03 Dec 05:07:41 05:11:41 21° 92° (E) 05:15:37 437.470
BEESAT 2 03 Dec 05:15:51 05:18:38 19° 112° (ESE) 05:21:27 435.950
Cosmos 2491 03 Dec 05:17:35 05:23:03 19° 76° (ENE) 05:28:30 435.465 / 435.565
HORYU 2 03 Dec 05:26:42 05:31:10 78° 284° (WNW) 05:35:34 437.375
DOVE 4 03 Dec 05:30:25 05:35:03 30° 94° (E) 05:39:36 437.250
Cubesat XI-IV 03 Dec 05:31:53 05:36:44 34° 96° (E) 05:41:31 437.490
STRAND 1 03 Dec 05:31:54 05:36:37 38° 68° (ENE) 05:41:20 437.568
RS-15 03 Dec 05:32:19 05:38:36 16° 94° (E) 05:44:59 29.354- 29.394
NOAA 15 03 Dec 05:41:13 05:46:17 46° 99° (E) 05:51:20 137.62
SO-50 03 Dec 06:03:50 06:07:54 33° 244° (WSW) 06:11:53 436.795
Cosmos 2504 03 Dec 06:09:19 06:17:40 43° 71° (ENE) 06:25:37 435.465 / 435.565
AIST 1 03 Dec 06:09:55 06:13:44 28° 73° (ENE) 06:17:31
NOAA 18 03 Dec 06:26:40 06:32:13 66° 103° (ESE) 06:37:41 137.9125
PHONESAT 2.4 03 Dec 06:27:19 06:28:15 11° 206° (SSW) 06:29:10 2401.200-2431.200
LilacSat-2 03 Dec 06:30:49 06:34:27 44° 287° (WNW) 06:38:02 437.200
BEESAT 3 03 Dec 06:30:51 06:34:27 34° 312° (NW) 06:38:06 437.485
GOMX 1 03 Dec 06:40:00 06:44:48 33° 292° (WNW) 06:49:40 467.674
YUBILEINY 03 Dec 06:42:32 06:51:18 71° 266° (W) 07:00:03 435.215
CUTE 1.7 + AOD 2 03 Dec 06:44:27 06:47:42 21° 93° (E) 06:50:56 437.475
CUTE-I 03 Dec 06:46:51 06:52:02 53° 290° (WNW) 06:57:11 437.470
AO-7 03 Dec 06:47:14 06:49:47 12° 322° (NW) 06:52:22 29.400- 29.500
BRITE-PL 03 Dec 06:47:56 06:50:50 15° 299° (WNW) 06:53:50 437.365/2234.400
BEESAT 2 03 Dec 06:52:20 06:56:07 43° 310° (NW) 06:59:57 435.950
HO-68 03 Dec 06:58:21 07:05:00 39° 97° (E) 07:11:37 435.675
CANX-2 03 Dec 07:01:14 07:05:09 37° 97° (E) 07:09:04 2200.000
DOVE 4 03 Dec 07:07:52 07:12:46 38° 291° (WNW) 07:17:35 437.250
Cosmos 2491 03 Dec 07:09:45 07:18:34 88° 97° (E) 07:27:23 435.465 / 435.565
UWE-3 03 Dec 07:10:57 07:11:47 10° 87° (E) 07:12:37 435.000/436.395/437.385
STRAND 1 03 Dec 07:11:27 07:15:51 28° 265° (W) 07:20:16 437.568
Cubesat XI-IV 03 Dec 07:11:59 07:16:45 34° 294° (WNW) 07:21:30 437.490
CINEMA 3 03 Dec 07:13:49 07:18:45 75° 102° (ESE) 07:23:25 145.822/145.860
NOAA 15 03 Dec 07:21:32 07:25:48 26° 297° (WNW) 07:30:04 137.62
AAUSAT CUBESAT 2 03 Dec 07:24:38 07:27:46 21° 93° (E) 07:30:53 437.432
SEEDS 03 Dec 07:33:44 07:37:48 50° 99° (E) 07:41:52 437.485
RS-15 03 Dec 07:36:56 07:48:32 69° 117° (ESE) 08:00:41 29.354- 29.394
PRISM 03 Dec 07:43:25 07:47:21 52° 72° (ENE) 07:51:21 437.425
TIGRISAT 03 Dec 07:47:00 07:49:32 15° 61° (ENE) 07:52:04 435.000
ANTELSAT 03 Dec 07:47:21 07:50:04 16° 62° (ENE) 07:52:48 437.575/2403.000
AIST 1 03 Dec 07:47:31 07:51:15 27° 271° (W) 07:54:57
COMPASS 1 03 Dec 07:50:41 07:54:45 51° 100° (E) 07:58:48 437.405
CUBEBUG 2 03 Dec 07:54:48 07:59:10 50° 99° (E) 08:03:22 437.445
ZACube-1 03 Dec 07:57:42 08:00:58 21° 93° (E) 08:04:10 437.345
Cosmos 2504 03 Dec 08:02:49 08:11:07 47° 273° (W) 08:19:02 435.465 / 435.565
FUNcube-1 03 Dec 08:07:13 08:10:43 24° 94° (E) 08:14:08 145.935
NOAA 18 03 Dec 08:08:24 08:12:20 20° 301° (WNW) 08:16:15 137.9125
CUTE 1.7 + AOD 2 03 Dec 08:19:48 08:23:37 34° 290° (WNW) 08:27:26 437.475
CANX-2 03 Dec 08:37:38 08:40:46 21° 294° (WNW) 08:43:55 2200.000
Oscar 11 03 Dec 08:41:42 08:45:57 57° 100° (E) 08:50:11 145.826/435.025
YUBILEINY 03 Dec 08:42:26 08:46:23 14° 287° (WNW) 08:50:20 435.215
UWE-3 03 Dec 08:44:26 08:48:49 73° 285° (WNW) 08:53:02 435.000/436.395/437.385
HO-68 03 Dec 08:46:01 08:52:46 45° 296° (WNW) 08:59:31 435.675
AIST 2 03 Dec 08:49:39 08:53:46 88° 114° (ESE) 08:57:57 435.215
UNISAT 6 03 Dec 08:49:56 08:54:34 61° 73° (ENE) 08:59:11 437.425
DELFI C3 03 Dec 08:52:20 08:55:42 26° 95° (E) 08:59:03 145.870
CINEMA 3 03 Dec 08:52:34 08:55:11 15° 300° (WNW) 08:57:44 145.822/145.860
AAUSAT CUBESAT 2 03 Dec 08:59:34 09:03:20 34° 290° (WNW) 09:07:05 437.432
JAS-2 03 Dec 09:04:53 09:09:59 25° 64° (ENE) 09:14:40 435.910
Cosmos 2491 03 Dec 09:10:14 09:16:38 22° 299° (WNW) 09:23:04 435.465 / 435.565
SEEDS 03 Dec 09:10:34 09:13:06 16° 296° (WNW) 09:15:39 437.485
CUSAT 1 03 Dec 09:15:09 09:18:28 44° 99° (E) 09:21:14 437.405
POPSAT HIP 1 03 Dec 09:15:41 09:17:49 14° 61° (ENE) 09:19:57 437.405
PRISM 03 Dec 09:20:55 09:22:58 13° 269° (W) 09:25:02 437.425
TIGRISAT 03 Dec 09:20:57 09:25:39 71° 258° (WSW) 09:30:20 435.000
ANTELSAT 03 Dec 09:21:34 09:26:14 66° 259° (WSW) 09:30:54 437.575/2403.000
Cosmos 2499 03 Dec 09:21:46 09:24:38 12° 50° (NE) 09:27:27 435.465 / 435.565
GONETS M04 03 Dec 09:25:48 09:28:26 11° 51° (NE) 09:31:03
COMPASS 1 03 Dec 09:27:28 09:29:53 15° 296° (WNW) 09:32:19 437.405
DANDE 03 Dec 09:27:59 09:31:43 22° 95° (E) 09:34:48 436.750
CUBEBUG 2 03 Dec 09:32:27 09:35:22 17° 297° (WNW) 09:38:13 437.445
ZACube-1 03 Dec 09:33:27 09:37:22 35° 290° (WNW) 09:41:11 437.345
FUNcube-1 03 Dec 09:43:14 09:46:58 30° 291° (WNW) 09:50:37 145.935
RS-15 03 Dec 09:50:31 10:01:52 46° 323° (NW) 10:13:41 29.354- 29.394
HUMSAT D 03 Dec 09:54:15 09:58:20 69° 102° (ESE) 10:02:22 437.325/437.525
AO-85 03 Dec 10:07:02 10:10:22 24° 43° (NE) 10:13:34 145.980
NANOSAT C BR1 03 Dec 10:10:24 10:14:28 45° 72° (ENE) 10:18:34 145.865
BUGSAT 1 03 Dec 10:10:40 10:13:31 18° 64° (ENE) 10:16:23 437.445
QB50P2 03 Dec 10:12:54 10:17:05 56° 73° (ENE) 10:21:18 145.880/145.840
POLYITAN 1 03 Dec 10:13:32 10:17:43 53° 72° (ENE) 10:21:55 437.675
ESTCUBE 1 03 Dec 10:15:36 10:18:38 18° 92° (E) 10:21:40 437.505/2401.250
Oscar 11 03 Dec 10:19:10 10:21:38 15° 297° (WNW) 10:24:06 145.826/435.025
DELFI C3 03 Dec 10:27:09 10:30:27 25° 292° (WNW) 10:33:44 145.870
QB50P1 03 Dec 10:27:34 10:31:50 76° 75° (ENE) 10:36:08 145.935-145.965
UNISAT 6 03 Dec 10:28:55 10:31:38 15° 270° (W) 10:34:22 437.425
AIST 2 03 Dec 10:30:27 10:32:50 15° 323° (NW) 10:35:16 435.215
DUCHIFAT 1 03 Dec 10:34:08 10:38:23 77° 75° (ENE) 10:42:39 145.980
AISAT 03 Dec 10:36:52 10:38:50 13° 90° (E) 10:40:48 437.250
JAS-2 03 Dec 10:48:13 10:54:47 57° 259° (WSW) 11:00:37 435.910
POPSAT HIP 1 03 Dec 10:48:48 10:53:04 65° 259° (WSW) 10:57:21 437.405
CUBEBUG 1 03 Dec 11:09:50 11:14:01 39° 98° (E) 11:18:10 437.445
DANDE 03 Dec 11:10:00 11:14:20 31° 283° (WNW) 11:17:45 436.750
Cosmos 2499 03 Dec 11:11:39 11:20:12 54° 75° (ENE) 11:28:10 435.465 / 435.565
Gurwin Techsat 1B 03 Dec 11:11:42 11:13:58 13° 56° (ENE) 11:16:16 435.225
VELOX 1 03 Dec 11:12:29 11:16:21 28° 96° (E) 11:20:12 145.980
50 SAT 03 Dec 11:15:35 11:18:26 22° 95° (E) 11:21:16 437.505
GONETS M04 03 Dec 11:19:05 11:27:38 55° 76° (ENE) 11:36:08
HUMSAT D 03 Dec 11:31:58 11:33:22 12° 299° (WNW) 11:34:47 437.325/437.525
PCSat 03 Dec 11:33:12 11:38:24 50° 114° (ESE) 11:43:38 145.827
DX 1 03 Dec 11:36:36 11:40:21 27° 96° (E) 11:44:05 434.975-435.025
Oscar 19 03 Dec 11:38:15 11:42:56 38° 68° (ENE) 11:47:40 437.125/150
BUGSAT 1 03 Dec 11:44:29 11:48:31 46° 261° (W) 11:52:38 437.445
AO-85 03 Dec 11:47:12 11:50:52 36° 243° (WSW) 11:54:25 145.980
NANOSAT C BR1 03 Dec 11:47:39 11:50:26 17° 268° (W) 11:53:14 145.865
UKube-1 03 Dec 11:50:04 11:53:49 28° 96° (E) 11:57:32 .
QB50P2 03 Dec 11:50:58 11:53:13 14° 270° (W) 11:55:29 145.880/145.840
ESTCUBE 1 03 Dec 11:51:21 11:55:42 48° 289° (WNW) 12:00:01 437.505/2401.250
POLYITAN 1 03 Dec 11:51:25 11:53:50 15° 269° (W) 11:56:15 437.675
QB50P1 03 Dec 12:07:39 12:08:07 10° 272° (W) 12:08:34 145.935-145.965
RS-15 03 Dec 12:08:36 12:18:37 28° 356° (N) 12:28:44 29.354- 29.394
TISAT 1 03 Dec 12:08:39 12:10:23 12° 90° (E) 12:12:07 437.305
SPROUT 03 Dec 12:09:06 12:13:26 77° 104° (ESE) 12:17:41 437.525
AO-7 03 Dec 12:10:25 12:15:29 18° 45° (NE) 12:20:35 29.400- 29.500
AISAT 03 Dec 12:11:17 12:15:45 67° 286° (WNW) 12:20:10 437.250
CUBEBUG 1 03 Dec 12:46:39 12:50:03 22° 295° (WNW) 12:53:27 437.445
Gurwin Techsat 1B 03 Dec 12:47:46 12:53:05 83° 74° (ENE) 12:58:27 435.225
50 SAT 03 Dec 12:48:48 12:51:41 23° 291° (WNW) 12:54:33 437.505
VELOX 1 03 Dec 12:48:52 12:52:45 30° 293° (WNW) 12:56:38 145.980
Cosmos 2499 03 Dec 13:05:22 13:12:55 35° 276° (W) 13:20:03 435.465 / 435.565
BEESAT 3 03 Dec 13:09:00 13:12:20 25° 45° (NE) 13:15:40 437.485
DX 1 03 Dec 13:12:40 13:16:30 30° 293° (WNW) 13:20:20 434.975-435.025
GONETS M04 03 Dec 13:16:31 13:24:01 34° 276° (W) 13:31:34
PCSat 03 Dec 13:17:22 13:22:02 29° 314° (NW) 13:26:45 145.827
Oscar 19 03 Dec 13:17:58 13:22:20 28° 265° (W) 13:26:44 437.125/150
UKube-1 03 Dec 13:26:04 13:29:48 29° 293° (WNW) 13:33:31 .
BEESAT 2 03 Dec 13:31:29 13:34:39 21° 43° (NE) 13:37:48 435.950
ITAMSAT 1 03 Dec 13:38:26 13:43:33 59° 72° (ENE) 13:48:42 435.822/435.867
TISAT 1 03 Dec 13:42:14 13:46:26 62° 286° (WNW) 13:50:35 437.305
SWISSCUBE 03 Dec 13:42:49 13:46:57 29° 96° (E) 13:51:02 437.505
AUBIESAT-1 03 Dec 13:44:56 13:48:40 24° 99° (E) 13:52:17 437.475
SPROUT 03 Dec 13:47:11 13:48:43 12° 300° (WNW) 13:50:16 437.525
BEESAT 03 Dec 13:47:13 13:51:20 28° 96° (E) 13:55:25 436.000
M-CUBED/EXP-1 PRIME 03 Dec 13:54:04 13:58:24 36° 102° (ESE) 14:02:37 437.505
AO-7 03 Dec 13:58:36 14:06:48 69° 66° (ENE) 14:15:05 29.400- 29.500
ITUPSAT 1 03 Dec 14:12:26 14:17:04 49° 100° (E) 14:21:40 437.325
RS-15 03 Dec 14:24:31 14:35:53 39° 30° (NNE) 14:47:02 29.354- 29.394
Gurwin Techsat 1B 03 Dec 14:31:15 14:33:41 13° 272° (W) 14:36:08 435.225
BRITE-PL 03 Dec 14:45:10 14:46:56 12° 59° (ENE) 14:48:44 437.365/2234.400
BEESAT 3 03 Dec 14:46:22 14:50:03 36° 243° (WSW) 14:53:43 437.485
HORYU 2 03 Dec 14:51:54 14:54:05 13° 60° (ENE) 14:56:15 437.375
BEESAT 2 03 Dec 15:08:47 15:12:40 46° 241° (WSW) 15:16:31 435.950
O/OREOS (USA 219) 03 Dec 15:12:15 15:15:10 17° 100° (E) 15:18:05 437.305
AUBIESAT-1 03 Dec 15:18:49 15:23:09 40° 296° (WNW) 15:27:22 437.475
ITAMSAT 1 03 Dec 15:19:50 15:23:24 18° 268° (W) 15:26:59 435.822/435.867
MOZHAYETS 4 03 Dec 15:19:52 15:24:24 62° 101° (E) 15:28:54
SWISSCUBE 03 Dec 15:20:29 15:24:44 33° 293° (WNW) 15:28:56 437.505
BEESAT 03 Dec 15:24:52 15:29:07 33° 293° (WNW) 15:33:20 436.000
NOAA 15 03 Dec 15:26:41 15:28:51 13° 56° (NE) 15:31:03 137.62
M-CUBED/EXP-1 PRIME 03 Dec 15:28:41 15:32:42 28° 299° (WNW) 15:36:38 437.505
AIST 2 03 Dec 15:32:27 15:34:48 14° 36° (NE) 15:37:09 435.215
ITUPSAT 1 03 Dec 15:51:05 15:54:33 20° 297° (WNW) 15:58:01 437.325
AO-7 03 Dec 15:53:22 16:00:11 28° 266° (W) 16:07:04 29.400- 29.500
ISS 03 Dec 16:10:05 16:12:14 16° 133° (SE) 16:14:23 145.825
GOMX 1 03 Dec 16:11:29 16:15:39 38° 69° (ENE) 16:20:08 467.674
KKS-1 03 Dec 16:11:51 16:16:21 89° 311° (NW) 16:20:50 437.445
NOAA 18 03 Dec 16:15:38 16:19:46 22° 60° (ENE) 16:23:55 137.9125
BRITE-PL 03 Dec 16:20:30 16:24:44 73° 258° (WSW) 16:29:15 437.365/2234.400
HORYU 2 03 Dec 16:25:34 16:30:03 72° 258° (WSW) 16:34:33 437.375
STARS 03 Dec 16:26:09 16:30:33 61° 101° (ESE) 16:34:55 437.465
CUTE-I 03 Dec 16:30:25 16:35:23 40° 68° (ENE) 16:40:22 437.470
DOVE 4 03 Dec 16:36:59 16:41:10 31° 67° (ENE) 16:45:35 437.250
CINEMA 3 03 Dec 16:43:05 16:44:27 11° 57° (ENE) 16:45:49 145.822/145.860
